User: anonymous   Login
Location: Brno
(49.2000°N, 16.6330°E)
Time: 05:09:40
(UTC+02:00)
Language:

Cosmos 1603 - Orbit

View from above orbital plane
View from above orbital plane
View from above satellite
View from above satellite

Ground track
Ground track

The orbit data is extracted from the following two-line orbital elements,

1 15333U 84106A   15090.17310177 -.00000172  00000-0 -65380-4 0  9994
2 15333 071.0296 346.3403 0020046 351.1622 162.6803 14.13993765573905
Epoch (UTC): 31 March 2015 04:09:15
Eccentricity: 0.0020046
inclination: 71.0296°
perigee height: 831 km
apogee height: 860 km
right ascension of ascending node: 346.3403°
argument of perigee: 351.1622°
revolutions per day: 14.13993765
mean anomaly at epoch: 162.6803°
orbit number at epoch: 57390

The dashed part of the orbit path shows where the satellite is in the earth's shadow,  

DLR